Coleman, TX

3:41 AM CST on February 27, 2017 (GMT -0600)
Coleman Municipal

Weather History for KCOM - March, 2014

Change the Weather History Date:

Sunday, March 16, 2014

  Actual Average (KABI) Record (KABI)
Temperature  
Mean Temperature 48 °F -  
Max Temperature 55 °F 64 °F 91 °F (1908)
Min Temperature 40 °F 42 °F 20 °F (1895)
Degree Days  
Heating Degree Days 17    
Moisture  
Dew Point 36 °F    
Average Humidity 62    
Maximum Humidity 94    
Minimum Humidity 42    
Precipitation  
Precipitation 0.00 in - - ()
Sea Level Pressure  
Sea Level Pressure 30.02 in    
Wind  
Wind Speed 18 mph (North)    
Max Wind Speed 32 mph    
Max Gust Speed 44 mph    
Visibility 10 miles    
Events      
Averages and records for this station are not official NWS values.
T = Trace of Precipitation, MM = Missing Value Source: NWS Daily Summary

Daily Weather History Graph

Daily Weather History Graph

Search for Another Location

Airport or City:

Trip Planner

Search our weather history database for the weather conditions in past years. The results will help you decide how hot, cold, wet, or windy it might be!

Date:

Astronomy

Mar. 16, 2014 Rise Set
Actual Time 7:46 AM CDT 7:46 PM CDT
Civil Twilight 7:22 AM CDT 8:10 PM CDT
Nautical Twilight 6:53 AM CDT 8:39 PM CDT
Astronomical Twilight 6:25 AM CDT 9:07 PM CDT
Moon 8:02 PM CDT (3/16) 7:32 AM CDT (3/16)
Length of Visible Light 12h 48m
Length of Day
12h 00m
Full, 100% of the Moon is Illuminated
Mar 16
Full
Mar 16
Full
Mar 23
Last Quarter
Mar 30
New
Apr 7
First Quarter

Hourly Weather History & Observations

Time (CDT) Temp. Windchill Dew Point Humidity Pressure Visibility Wind Dir Wind Speed Gust Speed Precip Events Conditions
12:15 AM 55.8 °F - 52.5 °F 89% 29.81 in 10.0 mi NNE 16.1 mph 21.9 mph N/A   Overcast
12:35 AM 54.5 °F - 51.8 °F 91% 29.82 in 10.0 mi NNE 9.2 mph - N/A   Scattered Clouds
12:55 AM 53.8 °F - 51.6 °F 92% 29.81 in 10.0 mi ENE 5.8 mph - N/A   Clear
1:15 AM 52.7 °F - 51.1 °F 94% 29.83 in 10.0 mi North 11.5 mph - N/A   Scattered Clouds
1:35 AM 53.6 °F - 51.8 °F 94% 29.84 in 10.0 mi North 16.1 mph - N/A   Mostly Cloudy
1:55 AM 53.6 °F - 51.3 °F 92% 29.84 in 10.0 mi North 12.7 mph 21.9 mph N/A   Mostly Cloudy
2:15 AM 53.1 °F - 50.9 °F 92% 29.85 in 10.0 mi North 11.5 mph - N/A   Scattered Clouds
2:35 AM 52.7 °F - 50.5 °F 92% 29.86 in 10.0 mi North 10.4 mph - N/A   Clear
2:55 AM 52.7 °F - 49.5 °F 89% 29.87 in 10.0 mi North 15.0 mph 20.7 mph N/A   Clear
3:15 AM 52.2 °F - 48.0 °F 86% 29.87 in 10.0 mi North 12.7 mph - N/A   Clear
3:35 AM 52.2 °F - 46.8 °F 82% 29.89 in 10.0 mi North 13.8 mph - N/A   Clear
3:55 AM 52.7 °F - 45.9 °F 78% 29.89 in 10.0 mi North 15.0 mph 20.7 mph N/A   Clear
4:15 AM 52.5 °F - 46.0 °F 79% 29.90 in 10.0 mi North 19.6 mph 25.3 mph N/A   Mostly Cloudy
4:35 AM 52.7 °F - 46.4 °F 79% 29.90 in 10.0 mi North 17.3 mph 27.6 mph N/A   Overcast
4:55 AM 52.7 °F - 46.4 °F 79% 29.89 in 10.0 mi North 15.0 mph 24.2 mph N/A   Overcast
5:15 AM 52.7 °F - 46.6 °F 80% 29.90 in 10.0 mi North 20.7 mph 25.3 mph N/A   Mostly Cloudy
5:35 AM 51.8 °F - 45.5 °F 79% 29.91 in 10.0 mi North 20.7 mph 33.4 mph N/A   Mostly Cloudy
5:55 AM 50.0 °F - 42.8 °F 76% 29.92 in 10.0 mi North 23.0 mph 32.2 mph N/A   Scattered Clouds
6:15 AM 48.4 °F - 40.8 °F 75% 29.93 in 10.0 mi North 24.2 mph 28.8 mph N/A   Clear
6:35 AM 47.1 °F - 37.6 °F 69% 29.95 in 10.0 mi North 19.6 mph 29.9 mph N/A   Clear
7:15 AM 45.9 °F 38.0 °F 32.9 °F 61% 29.98 in 10.0 mi North 20.7 mph 26.5 mph N/A   Clear
7:35 AM 45.5 °F 37.6 °F 32.7 °F 61% 29.99 in 10.0 mi North 20.7 mph 25.3 mph N/A   Clear
7:55 AM 45.1 °F 36.9 °F 31.8 °F 60% 30.00 in 10.0 mi North 21.9 mph 29.9 mph N/A   Clear
8:15 AM 45.0 °F 37.4 °F 30.9 °F 58% 30.02 in 10.0 mi North 18.4 mph 27.6 mph N/A   Clear
8:35 AM 45.0 °F 36.9 °F 30.6 °F 57% 30.02 in 10.0 mi North 20.7 mph 28.8 mph N/A   Clear
8:55 AM 45.7 °F 37.4 °F 30.9 °F 56% 30.03 in 10.0 mi North 23.0 mph 27.6 mph N/A   Clear
9:15 AM 45.9 °F 37.6 °F 30.2 °F 54% 30.04 in 10.0 mi North 23.0 mph 32.2 mph N/A   Clear
9:35 AM 46.4 °F 38.5 °F 30.9 °F 55% 30.05 in 10.0 mi North 21.9 mph 31.1 mph N/A   Clear
9:55 AM 46.4 °F 37.5 °F 30.9 °F 55% 30.05 in 10.0 mi North 27.6 mph 35.7 mph N/A   Clear
10:15 AM 46.4 °F 37.4 °F 31.1 °F 55% 30.05 in 10.0 mi North 28.8 mph 38.0 mph N/A   Clear
10:35 AM 47.3 °F - 31.6 °F 55% 30.06 in 10.0 mi North 25.3 mph 35.7 mph N/A   Clear
10:55 AM 48.0 °F - 31.8 °F 54% 30.07 in 10.0 mi North 32.2 mph 39.1 mph N/A   Clear
11:15 AM 47.7 °F - 31.5 °F 53% 30.08 in 10.0 mi North 31.1 mph 35.7 mph N/A   Scattered Clouds
11:35 AM 49.1 °F - 32.2 °F 52% 30.10 in 10.0 mi North 28.8 mph 35.7 mph N/A   Scattered Clouds
11:55 AM 48.0 °F - 32.5 °F 55% 30.11 in 10.0 mi North 28.8 mph 34.5 mph N/A   Mostly Cloudy
12:15 PM 47.3 °F - 32.9 °F 57% 30.12 in 10.0 mi North 27.6 mph 35.7 mph N/A   Overcast
12:35 PM 47.3 °F - 33.1 °F 58% 30.12 in 10.0 mi North 32.2 mph 40.3 mph N/A   Overcast
12:55 PM 49.1 °F - 33.8 °F 56% 30.12 in 10.0 mi North 27.6 mph 33.4 mph N/A   Overcast
1:15 PM 51.4 °F - 33.6 °F 51% 30.11 in 10.0 mi North 26.5 mph 36.8 mph N/A   Mostly Cloudy
1:35 PM 52.7 °F - 34.0 °F 49% 30.10 in 10.0 mi North 25.3 mph 36.8 mph N/A   Mostly Cloudy
1:55 PM 53.6 °F - 33.3 °F 46% 30.09 in 10.0 mi North 23.0 mph 38.0 mph N/A   Mostly Cloudy
2:15 PM 54.7 °F - 32.7 °F 43% 30.08 in 10.0 mi North 27.6 mph 36.8 mph N/A   Mostly Cloudy
2:35 PM 55.0 °F - 32.4 °F 42% 30.06 in 10.0 mi North 26.5 mph 36.8 mph N/A   Scattered Clouds
2:55 PM 55.0 °F - 32.4 °F 42% 30.05 in 10.0 mi North 29.9 mph 39.1 mph N/A   Scattered Clouds
3:15 PM 54.9 °F - 32.0 °F 42% 30.05 in 10.0 mi North 29.9 mph 43.7 mph N/A   Mostly Cloudy
3:35 PM 54.7 °F - 32.0 °F 42% 30.06 in 10.0 mi North 26.5 mph 32.2 mph N/A   Mostly Cloudy
3:55 PM 52.9 °F - 31.1 °F 43% 30.06 in 10.0 mi North 26.5 mph 39.1 mph N/A   Overcast
4:15 PM 52.2 °F - 31.1 °F 45% 30.05 in 10.0 mi North 28.8 mph 36.8 mph N/A   Overcast
4:35 PM 52.3 °F - 30.7 °F 44% 30.06 in 10.0 mi North 28.8 mph 34.5 mph N/A   Overcast
4:55 PM 51.1 °F - 31.1 °F 46% 30.06 in 10.0 mi North 25.3 mph 35.7 mph N/A   Overcast
5:15 PM 52.0 °F - 30.9 °F 45% 30.06 in 10.0 mi North 23.0 mph 28.8 mph N/A   Overcast
5:35 PM 50.9 °F - 30.6 °F 46% 30.06 in 10.0 mi NNE 26.5 mph 32.2 mph N/A   Overcast
5:55 PM 50.4 °F - 31.3 °F 48% 30.07 in 10.0 mi North 25.3 mph 32.2 mph N/A   Overcast
6:15 PM 50.0 °F - 31.3 °F 49% 30.07 in 10.0 mi North 23.0 mph 28.8 mph N/A   Overcast
6:35 PM 50.2 °F - 31.5 °F 49% 30.08 in 10.0 mi North 21.9 mph 27.6 mph N/A   Overcast
6:55 PM 50.4 °F - 31.1 °F 48% 30.08 in 10.0 mi North 21.9 mph 26.5 mph N/A   Scattered Clouds
7:15 PM 48.9 °F - 31.5 °F 51% 30.09 in 10.0 mi North 17.3 mph 24.2 mph N/A   Clear
7:35 PM 47.7 °F - 31.3 °F 53% 30.09 in 10.0 mi North 16.1 mph - N/A   Clear
7:55 PM 47.1 °F - 31.1 °F 54% 30.10 in 10.0 mi North 15.0 mph 20.7 mph N/A   Scattered Clouds
8:15 PM 46.8 °F - 31.6 °F 56% 30.10 in 10.0 mi North 12.7 mph 17.3 mph N/A   Scattered Clouds
8:35 PM 46.4 °F 41.1 °F 31.5 °F 56% 30.10 in 10.0 mi North 11.5 mph 18.4 mph N/A   Mostly Cloudy
8:55 PM 45.9 °F 40.0 °F 31.1 °F 56% 30.10 in 10.0 mi North 12.7 mph 19.6 mph N/A   Scattered Clouds
9:15 PM 45.7 °F 39.8 °F 30.9 °F 56% 30.10 in 10.0 mi North 12.7 mph - N/A   Mostly Cloudy
9:35 PM 45.9 °F 40.0 °F 31.1 °F 56% 30.10 in 10.0 mi North 12.7 mph - N/A   Mostly Cloudy
9:55 PM 46.0 °F 39.6 °F 30.7 °F 55% 30.11 in 10.0 mi North 15.0 mph - N/A   Overcast
10:15 PM 45.5 °F 39.2 °F 30.4 °F 56% 30.11 in 10.0 mi North 13.8 mph - N/A   Overcast
10:35 PM 44.6 °F 38.8 °F 30.2 °F 57% 30.11 in 10.0 mi North 11.5 mph - N/A   Mostly Cloudy
10:55 PM 43.5 °F 38.3 °F 30.7 °F 61% 30.12 in 10.0 mi North 9.2 mph - N/A   Scattered Clouds
11:15 PM 42.1 °F 37.1 °F 30.9 °F 65% 30.12 in 10.0 mi North 8.1 mph - N/A   Clear
11:35 PM 41.4 °F 35.7 °F 30.6 °F 65% 30.12 in 10.0 mi North 9.2 mph - N/A   Clear
11:55 PM 40.6 °F 34.8 °F 30.4 °F 67% 30.11 in 10.0 mi North 9.2 mph - N/A   Clear